Weather in Punta Cana

Dominican Republic     18°33′38″N   68°21′53″W
temp.,
°C
wind,
m/s
gust,
m/s
humid.,
%
clouds,
%
prec.,
mm/h
press.,
hPa
HPBL,
m
8 march, mon
mon823:00+26se23800 0.1 1017596
02:00+25n11790 0.1 1017281
05:00+24nnw23850 0.0 1016225
08:00+25n45810 0.0 1018445
11:00+26ene45760 0.4 1020566
14:00+27e34690 0.4 1017507
17:00+27ne56720 0.0 1016774
20:00+26ne68800 0.1 1018700
9 march, tue
tue923:00+26ene79780 0.1 1019928
02:00+26ene79780 0.3 1017933
05:00+26ene79751 0.3 10171008
08:00+26ene810732 0.3 10191196
11:00+26ene79740 0.0 10201047
14:00+26ene810734 0.0 1017913
17:00+26ene9117250 0.1 10161071
20:00+26ene9107626 0.1 10181049
10 march, wed
wed1023:00+25ene1012790 0.5 1018932
02:00+25ene911802 1.3 1017783
05:00+25e897615 0.3 10171063
08:00+25ene797648 0.3 10181027
11:00+26e797322 0.6 10191108
14:00+26ene677313 0.8 1016932
17:00+26ne567474 0.6 1015627
20:00+25ne687355 2.7 1016652
11 march, thu
thu1123:00+25ene8107438 3.2 1017909
02:00+25e897640 5.5 1016889
05:00+25ene897559 0.8 1015927
08:00+25ene897333 1.5 1017868
11:00+25e687630 2.3 1018772
14:00+26ene567031 2.5 1015805
17:00+26ene66758 0.0 1014886
20:00+25ene78754 0.1 1015869
12 march, fri
fri1223:00+25ene67750 0.0 1016765
02:00+25ene787620 0.7 1015800
05:00+25e677985 2.6 1015793
08:00+25e567783 3.0 1016731
11:00+26se336780 0.0 1017917
14:00+26e236564 0.0 1015719
17:00+26ne446744 0.0 1014663
20:00+25ene677622 0.1 1015689